User: anonymous   Login
Location: Unspecified
(0.0000°N, 0.0000°E)
Time: 01:26:57
(UTC+00:00)
Language:

Uosat F - Orbit

View from above orbital plane
View from above orbital plane
View from above satellite
View from above satellite

Ground track
Ground track

The orbit data is extracted from the following two-line orbital elements,

1 21575U 91050B   17266.55447670 +.00000002 +00000-0 +15219-4 0  9999
2 21575 098.7544 285.2920 0007546 016.4085 343.7346 14.40812832375247
Epoch (UTC): 23 September 2017 13:18:26
Eccentricity: 0.0007546
inclination: 98.7544°
perigee height: 750 km
apogee height: 761 km
right ascension of ascending node: 285.2920°
argument of perigee: 16.4085°
revolutions per day: 14.40812832
mean anomaly at epoch: 343.7346°
orbit number at epoch: 37524

The dashed part of the orbit path shows where the satellite is in the earth's shadow,  

DLR